Location: Newark
(25.4800°N, 85.7200°E)
Time: 20:11:45
(UTC+00:00)

Explorer 11/Cluster Stage 4 - Pass Details

Date: 19 August 2019
Orbit: 467 x 1260 km, 28.8° (Epoch: 15 September)

Event Time Altitude Azimuth Distance (km) Brightness Sun altitude
Rises 10:38:11 0° 284° (WNW) 3,812 11.3 28.5°
Reaches altitude 10° 10:41:10 10° 284° (WNW) 2,734 10.9 27.8°
Maximum altitude 10:47:45 86° 196° (SSW) 831 7.2 26.3°
Drops below altitude 10° 10:52:54 10° 108° (ESE) 2,163 8.4 25.1°
Sets 10:55:02 0° 108° (ESE) 2,969 9.0 24.7°
